Terug naar catalogus

STARLINK-35204

ActiefCommunicatieVLEO
NORAD 65694·PAYLOAD·🇺🇸 United States

Gelanceerd Sep 21, 2025 vanaf Cape Canaveral Space Force Station

Loading…

Volgende Passages (komende 24 uur)

TLE

VersSource: CelesTrak SupGP

Epoch: Sep 14, 2026, 14:07 UTC

1 65694C 25212U   26257.58868056  .00038439  00000+0  11364-2 0  2570
2 65694  53.1573 185.2669 0001205  95.1923  25.9169 15.34352186    11

Volg STARLINK-35204 in realtime met AllMySat

Download on the App Store